Flag for Germany Weather past 2 weeks in Jülich, North Rhine-Westphalia, Germany

Now
48 °F

Passing clouds.


Feels Like: 45 °F
Forecast: 45 / 59 °F
Wind: 7 mph from Southwest

Location: Geilenkirchen Airport

Current Time: Oct 23, 2014 at 4:49:26 AM

Latest Report: Oct 23, 2014 at 3:50 AM


Visibility: 6 mi

Pressure: 30.21 "Hg

Humidity: 87%

Dew point: 45 °F

Location of JülichLocation

Historic Weather in Jülich — Graph

°F

Jülich temperature yesterday

Maximum temperature yesterday: 54 °F (at 1:50 PM)
Minimum temperature yesterday: 43 °F (at 2:50 AM)
Average temperature yesterday: 48 °F

Past Weeks' High & Low Weather Summary

 TemperatureHumidityPressure
High75 °F (Oct 18, 2:50 PM)100% (Oct 8, 12:50 PM)30.21 "Hg (Oct 8, 12:50 PM)
Low43 °F (Oct 22, 2:50 AM)0% (Oct 12, 11:50 PM)29.53 "Hg (Oct 21, 3:50 PM)
Average58 °F83%29.84 "Hg
* Reported Oct 8 2:50 AM — Oct 23 2:50 AM, Jülich, Weather by CustomWeather, © 2014

Note: Actual official high and low records may vary slightly from our data, if they occured in-between our weather recording intervals... More about our weather records

Advertising

Jülich weather history for previous 24 hours

 ConditionsComfort  
Time TempWeatherWind HumidityBarometerVisibility
2:50 AM
Oct 23
48 °FClear.6 mph87%30.21 "Hg10 mi
1:50 AM48 °FClear.7 mph87%30.21 "Hg10 mi
12:50 AM48 °FClear.7 mph87%30.21 "Hg10 mi
11:50 PM
Oct 22
48 °FClear.7 mph87%30.21 "Hg10 mi
10:50 PM50 °FClear.8 mph88%30.21 "Hg10 mi
9:50 PM50 °FClear.9 mph100%30.18 "Hg10 mi
8:50 PM48 °FPassing clouds.8 mph94%30.18 "HgN/A
7:50 PM50 °FPassing clouds.12 mph82%30.15 "HgN/A
6:50 PM50 °FPartly sunny.10 mph82%30.15 "HgN/A
5:50 PM52 °FBroken clouds.10 mph82%30.15 "HgN/A
4:50 PM52 °FPassing clouds.15 mph82%30.12 "HgN/A
3:50 PM54 °FScattered clouds.20 mph77%30.12 "HgN/A
2:50 PM54 °FScattered clouds.18 mph77%30.09 "HgN/A
1:50 PM54 °FScattered clouds.15 mph88%30.09 "HgN/A
12:50 PM50 °FBroken clouds.17 mph82%30.12 "HgN/A
11:50 AM48 °FBroken clouds.14 mph87%30.09 "HgN/A
10:50 AM46 °FPartly sunny.14 mph93%30.09 "HgN/A
9:50 AM45 °FPartly sunny.14 mph93%30.07 "HgN/A
8:50 AM45 °FPassing clouds.13 mph93%30.04 "HgN/A
7:50 AM45 °FLight rain. Passing clouds.13 mph93%30.04 "HgN/A
6:50 AM45 °FLight rain. Passing clouds.18 mph93%30.01 "HgN/A
5:50 AM45 °FSprinkles. Passing clouds.15 mph93%29.98 "HgN/A
4:50 AM45 °FPartly cloudy.16 mph87%29.98 "HgN/A
Weather by CustomWeather, © 2014

See weather overviewHow to use our weather pages